When you browse on this site, cookies collect data to enhance your experience and personalize the content and advertising you see.
Visit our Privacy Policy to learn more. By continuing to use the site, you agree to this use of cookies and data.
  • en France
  • Liste des pays
  • À 7 jours
  • Température de l'eau
  • Carte satellitaire
  • Carte météo
  • Widgets météo
  • user-avatar
    Se connecter

    Météo par heure à Townsville

    Ce jour, 25 Mai, Samedi

    Heure Température Précipitation Vent Pression Humidité
    00:00 +21°C° 0.2 mm 4 m/s 756 mmHg 87%
    01:00 +21°C° 0.2 mm 4 m/s 756 mmHg 88%
    02:00 +21°C° 0.2 mm 4 m/s 756 mmHg 88%
    03:00 +21°C° 0.2 mm 4 m/s 756 mmHg 88%
    04:00 +20°C° 0 mm 4 m/s 756 mmHg 89%
    05:00 +20°C° 0.2 mm 4 m/s 756 mmHg 89%
    06:00 +20°C° 0.2 mm 4 m/s 756 mmHg 89%
    07:00 +20°C° 0.2 mm 4 m/s 756 mmHg 89%
    08:00 +22°C° 0.2 mm 4 m/s 756 mmHg 84%
    09:00 +23°C° 0.2 mm 4 m/s 756 mmHg 78%
    10:00 +25°C° 0.2 mm 4 m/s 756 mmHg 73%
    11:00 +26°C° 0.2 mm 4 m/s 756 mmHg 71%
    12:00 +26°C° 0.2 mm 4 m/s 755 mmHg 69%
    13:00 +27°C° 0.2 mm 4 m/s 755 mmHg 67%
    14:00 +27°C° 0.2 mm 5 m/s 755 mmHg 68%
    15:00 +27°C° 0.2 mm 5 m/s 755 mmHg 69%
    16:00 +26°C° 0.2 mm 5 m/s 754 mmHg 70%
    17:00 +25°C° 0.4 mm 5 m/s 755 mmHg 75%
    18:00 +23°C° 0.4 mm 5 m/s 755 mmHg 79%
    19:00 +22°C° 0.4 mm 4 m/s 755 mmHg 84%
    20:00 +22°C° 0.4 mm 4 m/s 755 mmHg 85%
    21:00 +22°C° 0.4 mm 4 m/s 756 mmHg 86%
    22:00 +22°C° 0.4 mm 4 m/s 756 mmHg 87%
    23:00 +22°C° 0.4 mm 4 m/s 756 mmHg 88%

    Demain, 26 Mai, Dimanche

    Heure Température Précipitation Vent Pression Humidité
    00:00 +21°C° 0.4 mm 4 m/s 756 mmHg 89%
    01:00 +21°C° 0.4 mm 4 m/s 756 mmHg 89%
    02:00 +21°C° 0.3 mm 4 m/s 755 mmHg 88%
    03:00 +21°C° 0.3 mm 4 m/s 755 mmHg 87%
    04:00 +22°C° 0.3 mm 4 m/s 755 mmHg 86%
    05:00 +22°C° 0.3 mm 4 m/s 755 mmHg 87%
    06:00 +21°C° 0.3 mm 4 m/s 755 mmHg 87%
    07:00 +21°C° 0.3 mm 4 m/s 756 mmHg 87%
    08:00 +23°C° 0.1 mm 5 m/s 756 mmHg 80%
    09:00 +25°C° 0.1 mm 5 m/s 756 mmHg 74%
    10:00 +26°C° 0.1 mm 5 m/s 756 mmHg 67%
    11:00 +27°C° 0 mm 5 m/s 756 mmHg 64%
    12:00 +28°C° 0 mm 5 m/s 755 mmHg 60%
    13:00 +29°C° 0 mm 5 m/s 755 mmHg 57%
    14:00 +28°C° 0.1 mm 5 m/s 754 mmHg 60%
    15:00 +27°C° 0.1 mm 5 m/s 754 mmHg 64%
    16:00 +26°C° 0.1 mm 4 m/s 754 mmHg 68%
    17:00 +26°C° 0.1 mm 4 m/s 754 mmHg 72%
    18:00 +25°C° 0.1 mm 4 m/s 754 mmHg 75%
    19:00 +23°C° 0.1 mm 4 m/s 755 mmHg 78%
    20:00 +24°C° 0.1 mm 3 m/s 755 mmHg 80%
    21:00 +24°C° 0.1 mm 3 m/s 755 mmHg 82%
    22:00 +22°C° 0.1 mm 3 m/s 756 mmHg 84%
    23:00 +22°C° 0.1 mm 3 m/s 756 mmHg 84%

    Après-demain, 27 Mai, Lundi

    Heure Température Précipitation Vent Pression Humidité
    00:00 +22°C° 0.1 mm 3 m/s 756 mmHg 85%
    01:00 +22°C° 0.1 mm 3 m/s 755 mmHg 85%
    02:00 +22°C° 0.1 mm 3 m/s 755 mmHg 85%
    03:00 +21°C° 0.1 mm 3 m/s 755 mmHg 86%
    04:00 +21°C° 0.1 mm 2 m/s 755 mmHg 86%
    05:00 +21°C° 0.1 mm 2 m/s 755 mmHg 86%
    06:00 +21°C° 0.1 mm 3 m/s 755 mmHg 86%
    07:00 +21°C° 0.1 mm 3 m/s 756 mmHg 86%
    08:00 +24°C° 0 mm 3 m/s 756 mmHg 78%
    09:00 +25°C° 0 mm 3 m/s 756 mmHg 70%
    10:00 +27°C° 0 mm 3 m/s 756 mmHg 62%
    11:00 +27°C° 0 mm 3 m/s 756 mmHg 60%
    12:00 +28°C° 0 mm 3 m/s 755 mmHg 58%
    13:00 +28°C° 0 mm 3 m/s 755 mmHg 57%
    14:00 +28°C° 0.1 mm 3 m/s 755 mmHg 60%
    15:00 +27°C° 0.1 mm 3 m/s 754 mmHg 62%
    16:00 +26°C° 0.1 mm 2 m/s 754 mmHg 65%
    17:00 +26°C° 0.2 mm 2 m/s 755 mmHg 69%
    18:00 +25°C° 0.2 mm 2 m/s 755 mmHg 73%
    19:00 +24°C° 0.2 mm 1 m/s 755 mmHg 77%
    20:00 +23°C° 0.1 mm 1 m/s 756 mmHg 80%
    21:00 +23°C° 0.1 mm 1 m/s 756 mmHg 82%
    22:00 +22°C° 0.1 mm 1 m/s 756 mmHg 84%
    23:00 +22°C° 0 mm 1 m/s 756 mmHg 85%

    28 Mai, Mardi

    Heure Température Précipitation Vent Pression Humidité
    00:00 +21°C° 0 mm 2 m/s 756 mmHg 85%
    01:00 +21°C° 0 mm 2 m/s 755 mmHg 86%
    02:00 +21°C° 0.1 mm 2 m/s 755 mmHg 86%
    03:00 +20°C° 0.1 mm 2 m/s 755 mmHg 86%
    04:00 +20°C° 0.1 mm 2 m/s 755 mmHg 86%
    05:00 +20°C° 0 mm 2 m/s 755 mmHg 86%
    06:00 +20°C° 0 mm 2 m/s 756 mmHg 86%
    07:00 +20°C° 0 mm 2 m/s 756 mmHg 85%
    08:00 +23°C° 0 mm 2 m/s 756 mmHg 77%
    09:00 +25°C° 0 mm 2 m/s 757 mmHg 68%
    10:00 +26°C° 0 mm 3 m/s 757 mmHg 60%
    11:00 +27°C° 0 mm 2 m/s 756 mmHg 56%
    12:00 +28°C° 0 mm 2 m/s 756 mmHg 52%
    13:00 +29°C° 0 mm 2 m/s 755 mmHg 47%
    14:00 +28°C° 0 mm 3 m/s 755 mmHg 50%
    15:00 +28°C° 0 mm 3 m/s 754 mmHg 53%
    16:00 +27°C° 0 mm 4 m/s 754 mmHg 56%
    17:00 +26°C° 0 mm 4 m/s 754 mmHg 64%
    18:00 +24°C° 0 mm 3 m/s 755 mmHg 72%
    19:00 +22°C° 0 mm 3 m/s 755 mmHg 80%
    20:00 +22°C° 0 mm 3 m/s 756 mmHg 81%
    21:00 +21°C° 0 mm 2 m/s 756 mmHg 83%
    22:00 +21°C° 0 mm 2 m/s 756 mmHg 84%
    23:00 +21°C° 0 mm 2 m/s 756 mmHg 85%

    29 Mai, Mercredi

    Heure Température Précipitation Vent Pression Humidité
    00:00 +21°C° 0 mm 2 m/s 756 mmHg 86%
    01:00 +21°C° 0 mm 2 m/s 756 mmHg 87%
    02:00 +21°C° 0 mm 2 m/s 755 mmHg 88%
    03:00 +21°C° 0 mm 2 m/s 755 mmHg 89%
    04:00 +20°C° 0 mm 2 m/s 755 mmHg 90%
    05:00 +20°C° 0 mm 2 m/s 755 mmHg 90%
    06:00 +20°C° 0 mm 2 m/s 756 mmHg 91%
    07:00 +20°C° 0 mm 3 m/s 756 mmHg 91%
    08:00 +22°C° 0 mm 3 m/s 756 mmHg 85%
    09:00 +24°C° 0 mm 3 m/s 756 mmHg 78%
    10:00 +25°C° 0 mm 3 m/s 757 mmHg 72%
    11:00 +26°C° 0 mm 3 m/s 756 mmHg 68%
    12:00 +27°C° 0 mm 3 m/s 755 mmHg 65%
    13:00 +27°C° 0 mm 3 m/s 755 mmHg 61%
    14:00 +27°C° 0 mm 3 m/s 754 mmHg 64%
    15:00 +26°C° 0 mm 3 m/s 754 mmHg 67%
    16:00 +26°C° 0 mm 4 m/s 754 mmHg 69%
    17:00 +25°C° 0 mm 3 m/s 754 mmHg 74%
    18:00 +24°C° 0 mm 3 m/s 755 mmHg 79%
    19:00 +23°C° 0 mm 2 m/s 755 mmHg 83%
    20:00 +21°C° 0 mm 2 m/s 755 mmHg 85%
    21:00 +21°C° 0 mm 2 m/s 756 mmHg 86%
    22:00 +21°C° 0 mm 2 m/s 756 mmHg 88%
    23:00 +21°C° 0 mm 2 m/s 756 mmHg 88%

    30 Mai, Jeudi

    Heure Température Précipitation Vent Pression Humidité
    00:00 +21°C° 0 mm 2 m/s 755 mmHg 89%
    01:00 +21°C° 0 mm 2 m/s 755 mmHg 89%
    02:00 +22°C° 0 mm 1 m/s 755 mmHg 89%
    03:00 +22°C° 0 mm 1 m/s 755 mmHg 90%
    04:00 +22°C° 0 mm 1 m/s 754 mmHg 90%
    05:00 +22°C° 0.1 mm 1 m/s 755 mmHg 90%
    06:00 +22°C° 0.1 mm 1 m/s 755 mmHg 90%
    07:00 +22°C° 0.1 mm 1 m/s 756 mmHg 90%
    08:00 +23°C° 0 mm 2 m/s 756 mmHg 85%
    09:00 +24°C° 0 mm 2 m/s 757 mmHg 81%
    10:00 +25°C° 0 mm 2 m/s 757 mmHg 76%
    11:00 +25°C° 0.1 mm 2 m/s 757 mmHg 74%
    12:00 +26°C° 0.1 mm 2 m/s 756 mmHg 71%
    13:00 +26°C° 0.1 mm 1 m/s 756 mmHg 69%
    14:00 +25°C° 0.3 mm 2 m/s 756 mmHg 73%
    15:00 +25°C° 0.3 mm 2 m/s 756 mmHg 77%
    16:00 +24°C° 0.3 mm 2 m/s 756 mmHg 81%
    17:00 +23°C° 0.2 mm 2 m/s 756 mmHg 83%
    18:00 +22°C° 0.2 mm 3 m/s 757 mmHg 84%
    19:00 +21°C° 0.2 mm 3 m/s 757 mmHg 86%
    20:00 +21°C° 0.1 mm 3 m/s 757 mmHg 86%
    21:00 +21°C° 0.1 mm 3 m/s 758 mmHg 86%
    22:00 +20°C° 0.1 mm 3 m/s 758 mmHg 86%
    23:00 +20°C° 0.2 mm 3 m/s 757 mmHg 86%
    Voir plus